Location: Unnamed
(48.6007°N, 2.4808°E)
Time: 05:08:35
(UTC+02:00)

PCSat - Visible Passes

Search period start: 26 March 2023 00:00
Search period end: 05 April 2023 01:00
Orbit: 784 x 794 km, 67.1° (Epoch: 25 March)

Date Brightness Start Highest point End Pass type
(mag) Time Alt. Az. Time Alt. Az. Time Alt. Az.
26 Mar 11.7 00:20:20 10° NNW 00:23:19 21° NNE 00:23:19 21° NNE visible
26 Mar 12.1 03:03:19 10° NW 03:03:59 14° NW 03:03:59 14° NW visible
26 Mar 12.1 21:18:29 10° WNW 21:21:38 15° NNW 21:24:47 10° NNE visible
26 Mar 12.3 23:06:07 10° N 23:07:28 11° N 23:08:49 10° NNE visible
27 Mar 11.7 00:49:09 10° NNW 00:52:41 20° NNE 00:52:41 20° NNE visible
27 Mar 11.9 02:32:01 10° NNW 02:33:21 18° NNW 02:33:21 18° NNW visible
27 Mar 12.0 20:46:24 10° WNW 20:50:00 18° NNW 20:53:36 10° NNE visible
27 Mar 12.3 22:34:31 10° NNW 22:35:44 11° N 22:36:58 10° NNE visible
28 Mar 11.8 00:17:58 10° NNW 00:21:30 17° NNE 00:22:04 17° NE visible
28 Mar 11.7 02:00:45 10° NNW 02:02:44 22° NNW 02:02:44 22° NNW visible
28 Mar 12.2 22:02:37 10° NNW 22:04:00 11° N 22:05:24 10° N visible
28 Mar 11.9 23:46:46 10° NNW 23:49:52 15° NNE 23:51:28 13° NE visible
29 Mar 11.5 01:29:31 10° NNW 01:32:08 26° N 01:32:08 26° N visible
29 Mar 12.2 21:30:32 10° NNW 21:32:17 11° N 21:34:02 10° N visible
29 Mar 12.0 23:15:35 10° NNW 23:18:12 13° NNE 23:20:48 10° NE visible
30 Mar 11.3 00:58:18 10° NNW 01:01:33 28° N 01:01:33 28° N visible
30 Mar 12.1 02:41:36 10° NW 02:42:13 13° NW 02:42:13 13° NW visible
30 Mar 12.1 20:58:22 10° NW 21:00:34 12° NNW 21:02:46 10° N visible
30 Mar 12.0 22:44:22 10° N 22:46:30 12° NNE 22:48:37 10° NE visible
31 Mar 11.2 00:27:05 10° NNW 00:30:58 27° NNE 00:30:58 27° NNE visible
31 Mar 11.8 02:10:13 10° NW 02:11:38 19° NW 02:11:38 19° NW visible
31 Mar 12.1 22:13:05 10° N 22:14:47 11° N 22:16:29 10° NNE visible
31 Mar 11.3 23:55:54 10° NNW 00:00:14 24° NE 00:00:24 24° NE visible
01 Apr 11.5 01:38:53 10° NW 01:41:04 25° NW 01:41:04 25° NW visible
01 Apr 12.1 21:41:41 10° N 21:43:03 11° N 21:44:24 10° NNE visible
01 Apr 11.4 23:24:42 10° NNW 23:28:40 20° NNE 23:29:51 19° NE visible
02 Apr 11.1 01:07:35 10° NNW 01:10:31 33° NNW 01:10:31 33° NNW visible
02 Apr 12.1 21:10:05 10° NNW 21:11:19 11° N 21:12:32 10° NNE visible
02 Apr 11.6 22:53:31 10° NNW 22:57:04 17° NNE 22:59:19 14° NE visible
03 Apr 10.7 00:36:19 10° NNW 00:39:59 39° N 00:39:59 39° N visible
03 Apr 12.1 02:20:09 10° NW 02:20:40 12° NW 02:20:40 12° NW visible
03 Apr 11.8 22:22:20 10° NNW 22:25:25 15° NNE 22:28:31 10° ENE visible
04 Apr 10.6 00:05:04 10° NNW 00:09:28 40° NNE 00:09:28 40° NNE visible
04 Apr 11.7 01:48:36 10° NW 01:50:08 18° NW 01:50:08 18° NW visible
04 Apr 11.9 21:51:08 10° NNW 21:53:44 13° NNE 21:56:21 10° NE visible
04 Apr 10.6 23:33:50 10° NNW 23:38:48 34° NE 23:38:57 34° NE visible
